Change the Weather History Date:

Sunday, October 7, 2012

  Actual Average Record
Temperature  
Mean Temperature 60 °F -  
Max Temperature 75 °F 74 °F 89 °F (2011)
Min Temperature 44 °F 57 °F 35 °F (2000)
Degree Days  
Heating Degree Days 6    
Growing Degree Days 10 (Base 50)    
Moisture  
Dew Point 52 °F    
Average Humidity 66    
Maximum Humidity 98    
Minimum Humidity 38    
Precipitation  
Precipitation 0.00 in - - ()
Sea Level Pressure  
Sea Level Pressure 30.08 in    
Wind  
Wind Speed 6 mph ()    
Max Wind Speed 18 mph    
Max Gust Speed -    
Visibility 6.8 miles    
Events Fog    
Averages and records for this station are not official NWS values.
T = Trace of Precipitation, MM = Missing Value Source: Averaged Metar Reports

Daily Weather History Graph

Daily Weather History Graph

Search for Another Location

Airport or City:

Trip Planner

Search our weather history database for the weather conditions in past years. The results will help you decide how hot, cold, wet, or windy it might be!

Date:

Astronomy

Oct. 07, 2012 Rise Set
Actual Time 7:38 AM CDT 7:23 PM CDT
Civil Twilight 7:15 AM CDT 7:46 PM CDT
Nautical Twilight 6:49 AM CDT 8:13 PM CDT
Astronomical Twilight 6:22 AM CDT 8:39 PM CDT
Moon 12:07 AM CDT (10/7) 1:53 PM CDT (10/7)
Length of Visible Light 12h 30m
Length of Day
11h 44m
Waning Gibbous, 56% of the Moon is Illuminated
Oct 7
Waning Gibbous
Oct 8
Last Quarter
Oct 15
New
Oct 21
First Quarter
Oct 29
Full

Hourly Weather History & Observations

Time (CDT) Temp. Dew Point Humidity Pressure Visibility Wind Dir Wind Speed Gust Speed Precip Events Conditions
12:30 AM 52 °F 44 °F 68% 29.82 in 3 mi South 4.5 mph - -   Haze
3:30 AM 55 °F 41 °F 47% 29.89 in 3 mi East 8.9 mph - -   Haze
5:40 AM 59.0 °F 46.4 °F 63% 30.12 in 8.0 mi NE 6.9 mph - N/A   Clear
6:30 AM 46 °F 41 °F 77% 29.98 in 3 mi East 4.5 mph - -   Haze
6:40 AM 59.0 °F 53.6 °F 82% 30.14 in 8.0 mi South 6.9 mph - N/A   Clear
7:40 AM 53.6 °F 44.6 °F 72% 30.18 in 8.0 mi Calm Calm - N/A   Clear
8:40 AM 60.8 °F 46.4 °F 59% 30.20 in 8.0 mi South 6.9 mph - N/A   Clear
9:30 AM 52 °F 52 °F 98% 30.09 in 2 mi NW 4.5 mph - -   Mist
9:40 AM 66.2 °F 41.0 °F 40% 30.20 in 10.0 mi Calm Calm - N/A   Clear
10:40 AM 71.6 °F 59.0 °F 64% 30.19 in 10.0 mi Calm Calm - N/A   Clear
11:40 AM 75.2 °F 59.0 °F 57% 30.18 in 10.0 mi Calm Calm - N/A   Clear
12:30 PM 70 °F 50 °F 38% 30.04 in 9 mi NE 8.9 mph - -   Haze
12:40 PM 77.0 °F 60.8 °F 57% 30.16 in 10.0 mi North 9.2 mph - N/A   Clear
1:40 PM 73.4 °F 57.2 °F 57% 30.14 in 10.0 mi NNE 15.0 mph - N/A   Clear
2:40 PM 73.4 °F 57.2 °F 57% 30.11 in 10.0 mi NNE 16.1 mph - N/A   Clear
3:30 PM 71 °F 58 °F 54% 29.91 in 10 mi NE 13.4 mph - -   Haze
3:40 PM 68.0 °F 53.6 °F 60% 30.10 in 10.0 mi NNE 18.4 mph - N/A   Clear
4:40 PM 68.0 °F 53.6 °F 60% 30.12 in 10.0 mi NE 13.8 mph - N/A   Clear
5:40 PM 68.0 °F 53.6 °F 60% 30.12 in 10.0 mi NE 13.8 mph - N/A   Clear
6:30 PM 62 °F 55 °F 72% 29.87 in 7 mi NE 11.2 mph - -   Haze
6:40 PM 60.8 °F 51.8 °F 72% 30.12 in 4.0 mi NE 13.8 mph - N/A   Clear
7:40 PM 59.0 °F 53.6 °F 82% 30.15 in 0.8 mi NE 9.2 mph - N/A Fog Fog
8:40 PM 59.0 °F 53.6 °F 82% 30.17 in 1.0 mi NE 6.9 mph - N/A Fog Fog
9:35 PM 54 °F 53 °F 96% 29.91 in 3 mi ENE 6.7 mph - -   Mist
9:40 PM 59.0 °F 53.6 °F 82% 30.20 in 1.0 mi NE 6.9 mph - N/A Fog Fog